Total_Precipitation_Accumulation
0.22 0.26 0.33 0.38 0.31 0.19 0.06 0.01 0.00 0.01 0.01 0.02 0.02 0.01 0.01 0.02 0.03 0.04 0.03 0.02 0.04 0.07 0.12 0.25 0.36 0.42 0.47 0.50 0.51 0.51 0.53 0.55 0.60 0.63 0.66 0.71 0.72 0.76 0.82 0.85 0.84 0.84 0.90 0.93 0.96 0.94 0.91 0.88 0.80
0.22 0.33 0.42 0.47 0.29 0.12 0.04 0.01 0.01 0.01 0.02 0.03 0.02 0.01 0.01 0.02 0.02 0.03 0.03 0.03 0.03 0.05 0.11 0.20 0.35 0.44 0.49 0.51 0.52 0.52 0.54 0.57 0.62 0.66 0.69 0.73 0.75 0.77 0.83 0.84 0.85 0.85 0.88 0.97 0.96 0.93 0.93 0.90 0.87
0.34 0.46 0.49 0.48 0.29 0.08 0.02 0.00 0.00 0.02 0.02 0.03 0.02 0.02 0.02 0.03 0.03 0.04 0.03 0.04 0.04 0.06 0.10 0.21 0.36 0.47 0.55 0.57 0.56 0.56 0.60 0.63 0.68 0.70 0.75 0.79 0.82 0.84 0.86 0.82 0.81 0.80 0.78 0.82 0.84 0.87 0.94 0.93 0.89
0.50 0.65 0.60 0.45 0.20 0.07 0.02 0.01 0.01 0.02 0.02 0.02 0.01 0.02 0.03 0.03 0.03 0.04 0.04 0.04 0.07 0.10 0.15 0.25 0.40 0.53 0.62 0.64 0.62 0.61 0.66 0.72 0.76 0.81 0.84 0.88 0.95 0.95 0.92 0.86 0.86 0.80 0.75 0.77 0.79 0.85 0.93 0.91 0.84
0.64 0.73 0.63 0.39 0.13 0.04 0.02 0.01 0.01 0.02 0.02 0.02 0.01 0.02 0.03 0.03 0.03 0.05 0.07 0.08 0.10 0.15 0.23 0.31 0.47 0.62 0.70 0.74 0.73 0.70 0.75 0.79 0.83 0.86 0.91 0.96 1.00 1.00 0.95 0.91 0.88 0.87 0.84 0.82 0.83 0.87 0.95 0.90 0.82
0.76 0.77 0.55 0.27 0.09 0.03 0.02 0.01 0.02 0.02 0.02 0.02 0.02 0.03 0.04 0.05 0.05 0.07 0.09 0.10 0.11 0.18 0.27 0.40 0.63 0.72 0.77 0.85 0.86 0.83 0.87 0.91 0.93 0.95 1.01 1.05 1.05 1.05 1.04 0.97 0.90 0.91 0.92 0.88 0.88 0.91 0.95 0.88 0.81
0.80 0.68 0.41 0.18 0.07 0.04 0.03 0.03 0.03 0.03 0.03 0.02 0.02 0.04 0.05 0.08 0.09 0.11 0.13 0.15 0.21 0.28 0.39 0.49 0.68 0.81 0.90 1.00 1.03 1.00 1.01 1.04 1.03 1.06 1.10 1.14 1.13 1.11 1.09 1.05 0.96 0.95 0.95 0.99 0.95 0.91 0.88 0.84 0.78
0.81 0.75 0.40 0.21 0.11 0.07 0.05 0.05 0.04 0.04 0.03 0.04 0.04 0.05 0.06 0.09 0.10 0.15 0.20 0.27 0.34 0.41 0.49 0.60 0.73 0.86 0.96 1.09 1.19 1.22 1.22 1.22 1.25 1.24 1.16 1.16 1.24 1.27 1.24 1.14 1.06 1.03 1.00 1.03 1.05 0.97 0.87 0.81 0.77
0.90 0.91 0.47 0.21 0.14 0.10 0.08 0.08 0.05 0.04 0.05 0.07 0.06 0.05 0.07 0.10 0.14 0.23 0.32 0.42 0.50 0.57 0.63 0.76 0.84 0.92 1.02 1.11 1.21 1.41 1.51 1.51 1.47 1.45 1.33 1.34 1.35 1.31 1.26 1.15 1.10 1.04 1.04 1.02 1.08 1.11 1.00 0.89 0.82
1.00 0.78 0.38 0.18 0.16 0.13 0.12 0.11 0.09 0.09 0.10 0.10 0.09 0.08 0.12 0.16 0.22 0.28 0.33 0.41 0.52 0.57 0.69 0.83 0.99 1.06 1.18 1.23 1.31 1.47 1.59 1.63 1.56 1.34 1.36 1.45 1.33 1.28 1.21 1.22 1.24 1.14 1.12 1.09 1.08 1.12 1.08 0.99 0.83
0.83 0.55 0.28 0.19 0.17 0.18 0.18 0.16 0.13 0.14 0.13 0.11 0.11 0.11 0.16 0.22 0.28 0.34 0.37 0.43 0.53 0.60 0.72 0.87 1.09 1.25 1.35 1.34 1.33 1.40 1.50 1.58 1.58 1.39 1.24 1.30 1.36 1.37 1.37 1.28 1.31 1.30 1.25 1.26 1.20 1.15 1.04 0.93 0.88
0.61 0.40 0.29 0.26 0.22 0.24 0.24 0.21 0.17 0.13 0.11 0.12 0.15 0.15 0.17 0.25 0.31 0.37 0.40 0.43 0.54 0.67 0.79 0.95 1.11 1.31 1.45 1.50 1.45 1.43 1.44 1.49 1.52 1.49 1.42 1.34 1.34 1.27 1.20 1.19 1.12 1.13 1.10 1.13 1.15 1.05 0.96 0.89 0.84
0.48 0.35 0.29 0.28 0.29 0.29 0.30 0.28 0.21 0.12 0.10 0.15 0.19 0.20 0.21 0.24 0.32 0.43 0.49 0.50 0.56 0.67 0.82 1.05 1.20 1.33 1.51 1.63 1.61 1.60 1.56 1.42 1.50 1.58 1.64 1.52 1.35 1.25 1.21 1.16 1.13 1.06 1.02 1.01 1.01 0.94 0.88 0.83 0.79
0.39 0.35 0.30 0.27 0.29 0.32 0.37 0.36 0.30 0.16 0.14 0.22 0.24 0.25 0.26 0.26 0.34 0.46 0.57 0.59 0.58 0.66 0.83 1.11 1.30 1.37 1.55 1.63 1.62 1.63 1.68 1.56 1.59 1.64 1.61 1.67 1.58 1.38 1.35 1.31 1.19 1.11 1.04 0.99 0.98 0.95 0.90 0.85 0.79
0.42 0.49 0.40 0.30 0.28 0.31 0.42 0.48 0.34 0.20 0.21 0.29 0.30 0.30 0.33 0.33 0.37 0.45 0.59 0.65 0.64 0.70 0.86 1.12 1.34 1.49 1.59 1.59 1.61 1.67 1.72 1.71 1.65 1.64 1.63 1.69 1.67 1.61 1.50 1.46 1.37 1.22 1.14 1.12 1.08 1.07 1.01 0.97 0.88
0.65 0.79 0.67 0.37 0.30 0.35 0.53 0.52 0.26 0.22 0.28 0.31 0.36 0.34 0.37 0.36 0.37 0.45 0.62 0.77 0.78 0.83 0.89 1.06 1.33 1.49 1.61 1.63 1.63 1.64 1.72 1.74 1.72 1.72 1.69 1.69 1.75 1.75 1.75 1.63 1.53 1.36 1.32 1.29 1.24 1.17 1.13 1.04 0.97
0.97 0.92 0.64 0.41 0.35 0.43 0.57 0.44 0.23 0.24 0.33 0.36 0.41 0.39 0.40 0.44 0.42 0.46 0.58 0.76 0.84 0.86 0.95 1.10 1.30 1.44 1.55 1.73 1.78 1.71 1.73 1.79 1.82 1.80 1.78 1.67 1.72 1.82 1.90 1.91 1.78 1.64 1.55 1.45 1.35 1.24 1.17 1.12 1.05
0.84 0.66 0.50 0.41 0.39 0.44 0.50 0.39 0.26 0.25 0.33 0.38 0.44 0.44 0.40 0.47 0.43 0.46 0.56 0.72 0.87 0.91 1.00 1.13 1.28 1.45 1.57 1.81 1.96 1.99 1.87 1.86 1.85 1.81 1.73 1.72 1.72 1.74 1.78 1.87 1.94 1.91 1.85 1.72 1.56 1.44 1.27 1.16 1.11
0.53 0.60 0.51 0.35 0.33 0.44 0.45 0.36 0.26 0.25 0.31 0.39 0.43 0.47 0.42 0.45 0.48 0.52 0.60 0.69 0.88 0.97 1.01 1.14 1.20 1.39 1.57 1.74 1.91 1.95 1.91 1.85 1.82 1.72 1.67 1.61 1.66 1.69 1.72 1.67 1.77 1.84 1.83 1.77 1.69 1.61 1.54 1.40 1.27
0.62 0.70 0.55 0.38 0.32 0.49 0.49 0.39 0.28 0.26 0.31 0.40 0.40 0.47 0.49 0.49 0.54 0.58 0.65 0.72 0.89 1.01 1.00 1.11 1.23 1.35 1.41 1.53 1.68 1.79 1.86 1.89 1.87 1.75 1.75 1.65 1.59 1.60 1.69 1.72 1.65 1.64 1.66 1.67 1.63 1.59 1.56 1.52 1.39
0.72 0.63 0.51 0.47 0.44 0.54 0.62 0.57 0.35 0.29 0.27 0.36 0.40 0.46 0.56 0.60 0.61 0.63 0.67 0.74 0.89 1.03 1.06 1.08 1.21 1.34 1.41 1.54 1.72 1.84 2.04 2.08 2.13 1.94 1.77 1.68 1.61 1.54 1.55 1.65 1.67 1.61 1.57 1.57 1.55 1.48 1.42 1.42 1.33
0.77 0.44 0.44 0.51 0.78 0.89 0.77 0.89 0.44 0.31 0.29 0.36 0.42 0.45 0.57 0.61 0.62 0.69 0.69 0.77 0.88 0.97 1.10 1.14 1.25 1.38 1.42 1.59 1.76 1.75 1.89 1.93 1.90 1.78 1.70 1.62 1.60 1.57 1.49 1.49 1.55 1.59 1.54 1.47 1.45 1.47 1.42 1.43 1.41
0.63 0.40 0.51 0.64 0.88 1.05 0.78 0.88 0.50 0.28 0.35 0.36 0.40 0.43 0.53 0.62 0.59 0.67 0.70 0.70 0.80 0.90 1.05 1.16 1.30 1.43 1.49 1.54 1.71 1.76 1.70 1.72 1.79 1.84 1.77 1.68 1.63 1.58 1.51 1.48 1.47 1.48 1.48 1.40 1.37 1.43 1.46 1.47 1.43
0.59 0.69 0.84 0.96 1.40 1.67 0.70 0.67 0.55 0.47 0.55 0.44 0.39 0.44 0.54 0.60 0.63 0.66 0.65 0.64 0.75 0.90 1.03 1.16 1.27 1.38 1.49 1.52 1.62 1.78 1.72 1.65 1.69 1.81 1.85 1.79 1.71 1.63 1.52 1.42 1.40 1.37 1.34 1.33 1.30 1.31 1.32 1.37 1.39
0.95 1.44 2.12 2.27 2.26 1.38 0.38 0.51 0.62 0.51 0.49 0.53 0.51 0.49 0.53 0.58 0.64 0.69 0.60 0.63 0.69 0.81 0.97 1.11 1.27 1.31 1.36 1.44 1.53 1.60 1.72 1.68 1.60 1.58 1.64 1.78 1.77 1.65 1.56 1.48 1.37 1.32 1.27 1.24 1.24 1.27 1.28 1.24 1.27
1.04 1.29 1.73 1.71 1.17 0.53 0.31 0.51 0.56 0.41 0.36 0.36 0.39 0.47 0.50 0.54 0.57 0.62 0.60 0.63 0.66 0.71 0.83 0.99 1.11 1.28 1.39 1.43 1.48 1.52 1.59 1.70 1.61 1.53 1.47 1.56 1.63 1.52 1.45 1.49 1.42 1.32 1.28 1.27 1.25 1.23 1.24 1.27 1.23
0.92 1.01 0.88 1.17 0.84 0.58 0.49 0.46 0.38 0.20 0.20 0.24 0.30 0.40 0.51 0.58 0.59 0.56 0.59 0.64 0.63 0.70 0.76 0.90 1.00 1.16 1.36 1.48 1.49 1.50 1.52 1.59 1.60 1.52 1.49 1.48 1.49 1.48 1.46 1.47 1.47 1.39 1.38 1.41 1.40 1.36 1.28 1.28 1.29
0.73 0.90 1.11 1.55 1.30 0.75 0.49 0.47 0.53 0.38 0.37 0.32 0.34 0.41 0.52 0.61 0.65 0.60 0.56 0.63 0.65 0.69 0.74 0.80 0.96 1.07 1.22 1.41 1.56 1.54 1.49 1.47 1.54 1.56 1.54 1.51 1.48 1.48 1.47 1.49 1.51 1.45 1.38 1.45 1.50 1.44 1.36 1.37 1.34
0.82 1.11 1.39 1.45 1.11 0.90 0.63 0.62 0.63 0.55 0.54 0.47 0.43 0.47 0.54 0.62 0.69 0.63 0.55 0.55 0.62 0.68 0.78 0.82 0.91 1.02 1.14 1.23 1.41 1.52 1.50 1.48 1.51 1.54 1.48 1.49 1.48 1.48 1.43 1.40 1.44 1.50 1.46 1.40 1.48 1.45 1.39 1.40 1.34
0.70 0.96 1.21 1.48 1.08 0.69 0.66 0.65 0.49 0.46 0.50 0.46 0.44 0.44 0.49 0.57 0.62 0.62 0.54 0.52 0.58 0.69 0.78 0.87 0.92 0.92 1.01 1.11 1.24 1.39 1.47 1.47 1.48 1.46 1.47 1.51 1.50 1.48 1.39 1.34 1.37 1.43 1.45 1.42 1.43 1.42 1.37 1.37 1.35